Regional Weather Roundup
Issued by NWS

Home | Current Version | Previous Version | Graphics & Text | Print | Product List | Glossary On
Versions: 1 2 3 4 5 6 7 8 9 10 11 12 13 14 15 16 17 18 19 20 21 22 23 24 25 26 27 28 29 30 31 32 33 34 35 36 37 38 39 40 41 42 43 44 45 46 47 48 49 50
000
ASUS43 KMKX 061000
RWRWI

WISCONSIN REGIONAL WEATHER ROUNDUP
NATIONAL WEATHER SERVICE MILWAUKEE/SULLIVAN WI
500 AM CDT WED MAY 06 2015

NOTE: "FAIR" INDICATES FEW OR NO CLOUDS BELOW 12,000 FEET WITH NO
SIGNIFICANT WEATHER AND/OR OBSTRUCTIONS TO VISIBILITY.

WIZ001-002-006>008-014>016-023>028-061100-
NORTHWEST WISCONSIN

CITY           SKY/WX    TMP DP  RH WIND       PRES   REMARKS
SUPERIOR ARPT  CLOUDY    42  35  79 NE5       30.14S
ASHLAND        CLOUDY    50  32  50 SE5       30.15F
HAYWARD        CLOUDY    53  46  77 S12G18    30.14S
SIREN          CLOUDY    53  49  86 SE8       30.11F
CUMBERLAND     CLOUDY    48  46  93 SE8       30.13F
RICE LAKE      CLOUDY    51  48  89 SE7       30.15S
CHETEK         CLOUDY    51  49  95 E9        30.14F
LADYSMITH      LGT RAIN  50  48  93 E8        30.17F
EAU CLAIRE     NOT AVBL
MENOMONIE      CLOUDY    53  51  93 E7        30.12F
NEW RICHMOND   CLOUDY    53  52  97 E8        30.10F
OSCEOLA        CLOUDY    54  53  99 SE10      30.12F
$$

WIZ003>005-009-010-017-018-061100-
NORTH CENTRAL WISCONSIN

CITY           SKY/WX    TMP DP  RH WIND       PRES   REMARKS
MANITOWISH WTR CLOUDY    51  28  41 S6        30.19S
ARBOR VITAE    CLOUDY    53  28  38 S6        30.20S
WOODRUFF       CLOUDY    53  28  38 S6        30.20S
RHINELANDER    CLOUDY    51  29  42 SE6       30.20F
EAGLE RIVER    CLOUDY    48  28  44 CALM      30.21S
LAND O LAKES   PTCLDY    35  33  93 CALM      30.22S
PHILLIPS       LGT RAIN  51  40  67 SE10      30.17S
TOMAHAWK       RAIN      46  41  83 CALM      30.20S
MEDFORD        CLOUDY    46  43  89 E6        30.18S
MERRILL        LGT RAIN  48  43  84 SE5       30.20F
$$

WIZ029-030-035-036-043>047-061100-
CENTRAL WISCONSIN

CITY           SKY/WX    TMP DP  RH WIND       PRES   REMARKS
WAUSAU         LGT RAIN  47  44  90 SE6       30.18F
MOSINEE        LGT RAIN  46  45  93 E6        30.20F
MARSHFIELD     CLOUDY    51  46  83 SE9       30.17S
STEVENS POINT  DRIZZLE   48  45  88 E7        30.20F
WAUPACA        CLOUDY    54  40  59 CALM      30.20F
WAUTOMA        NOT AVBL
WISC RAPIDS    CLOUDY    51  44  77 E7        30.19S
CAMP DOUGLAS   CLOUDY    50  50 100 E8        30.15F
$$

WIZ011>013-019>022-031-037>040-048>050-061100-
NORTHEAST WISCONSIN

CITY           SKY/WX    TMP DP  RH WIND       PRES   REMARKS
ANTIGO         CLOUDY    49  35  57 SE7       30.21S
SHAWANO        CLOUDY    53  43  69 CALM      30.22S
OCONTO         CLOUDY    47  43  85 CALM      30.22S
STURGEON BAY   CLOUDY    46  34  61 SE3       30.24F
GREEN BAY      CLOUDY    52  42  69 NE6       30.21S
MANITOWOC      NOT AVBL
APPLETON       CLOUDY    52  36  54 E5        30.20F
CLINTONVILLE   CLOUDY    52  43  71 NE3       30.21S
OSHKOSH        CLOUDY    51  44  77 E5        30.18F
$$

WIZ032>034-041-042-053>061-061100-
SOUTHWEST WISCONSIN

CITY           SKY/WX    TMP DP  RH WIND       PRES   REMARKS
LA CROSSE      CLOUDY    56  53  90 SE7       30.12F FOG
SPARTA         CLOUDY    53  51  94 E3        30.15F FOG
VIROQUA        CLOUDY    51  51 100 SE8       30.13F VSB 1/2
BOSCOBEL       CLOUDY    54  52  93 NE3       30.14F FOG
PRAIRIE DU CHI CLOUDY    54  52  93 E7        30.12F FOG
PLATTEVILLE    CLOUDY    52  51  97 E9        30.13F VSB 1/4
$$

WIZ056-057-062-063-064-067-068-061100-
SOUTH CENTRAL WISCONSIN

CITY           SKY/WX    TMP DP  RH WIND       PRES   REMARKS
REEDSBURG      CLOUDY    51  50  98 E5        30.16F FOG
BARABOO/DELLS  NOT AVBL
LONE ROCK      CLOUDY    52  51  97 E10       30.15F FOG
MINERAL POINT  FOG       52  50  93 E9        30.14S VSB 1/2
MADISON        CLOUDY    50  48  93 SE10      30.16F
MIDDLETON      CLOUDY    52  52  98 E5        30.17F VSB 3/4
WATERTOWN      CLOUDY    47  46  94 CALM      30.18F
MONROE         FOG       50  50 100 E8        30.15F VSB 1/4
JANESVILLE     CLOUDY    50  46  87 E6        30.16F FOG
$$

WIZ051-052-058>065-066-070>072-061100-
SOUTHEAST WISCONSIN

CITY           SKY/WX    TMP DP  RH WIND       PRES   REMARKS
MILWAUKEE      CLOUDY    46  41  82 NE6       30.20F HAZE
WAUKESHA       CLOUDY    45  43  93 E3        30.20F
MILWAUKEE/TIMM CLOUDY    45  37  76 E3        30.21S
RACINE         FOG       47  45  93 E5        30.21S VSB 3/4
BURLINGTON     CLOUDY    46  45  97 E5        30.19S FOG
KENOSHA        CLOUDY    48  46  93 E5        30.19S FOG
FOND DU LAC    CLOUDY    48  44  86 CALM      30.19S
SHEBOYGAN      CLOUDY    46  42  86 E3        30.21S
WEST BEND      CLOUDY    45  41  87 CALM      30.20S
JUNEAU         CLOUDY    47  43  84 E5        30.20S
$$

LSZ147-162-061100-
LAKE SUPERIOR

STATION/POSITION TIME  TEMP    WIND        PRES    WAVE
                       AIR SEA DIR/SP/G            HT/PER
                 (UTC) (F)     (DEG/KT/KT) (MB)    (FT/S)
W MID LAKE BUOY  0850   41 35  360/  4/  4 1022.8S   1
DEVILS ISLAND    0900   47      90/ 10/ 10 1022.1F
PORT WING        0900   44      CALM  /  1 1021.0S
SAXON HARBOR     0900   46        CALM     1020.7F
$$

LMZ867-665-643>646-061100-
LAKE MICHIGAN

STATION/POSITION TIME  TEMP    WIND        PRES    WAVE
                       AIR SEA DIR/SP/G            HT/PER
                 (UTC) (F)     (DEG/KT/KT) (MB)    (FT/S)
CHAMBERS ISLAND  0900   46        CALM     1023.4F
NORTHPORT PIER   0900   43     120/  3/  5 1023.4F
SISTER BAY       0802   47        CALM       N/A
KEWAUNEE LAKESHO 0900   44      60/  2/  5 1022.6F
SHEBOYGAN LAKESH 0900   44      70/  5/  6 1023.6F
PORT WASHINGTON  0900   46      40/  7/  8 1023.7S
ATWATER BUOY     0900   44      10/  6/  8 1023.8F
MILWAUKEE LAKESH 0900   45      30/  5/  6   N/A
KENOSHA   LAKESH 0900   44      70/  3/  4 1022.4F
$$

TC  - TEMPERATURE IN CELSIUS
VSB - VISIBILITY IN STATUTE MILES
WCI - WIND CHILL INDEX
HX  - HEAT INDEX



USA.gov is the U.S. government's official web portal to all federal, state and local government web resources and services.